Weather History for EHRD - December, 2012

Change the Weather History Date:

Saturday, December 8, 2012

  Actual Average Record
Temperature  
Mean Temperature 30 °F -  
Max Temperature 37 °F 42 °F 59 °F (2000)
Min Temperature 23 °F 34 °F 23 °F (2012)
Degree Days  
Heating Degree Days 35    
Moisture  
Dew Point 29 °F    
Average Humidity 85    
Maximum Humidity 100    
Minimum Humidity 59    
Precipitation  
Precipitation 0.00 in - - ()
Sea Level Pressure  
Sea Level Pressure 30.14 in    
Wind  
Wind Speed 6 mph ()    
Max Wind Speed 13 mph    
Max Gust Speed -    
Visibility 5.8 miles    
Events Rain    
Averages and records for this station are not official NWS values.
T = Trace of Precipitation, MM = Missing Value Source: Averaged Metar Reports

Daily Weather History Graph

Daily Weather History Graph

Search for Another Location

Airport or City:

Trip Planner

Search our weather history database for the weather conditions in past years. The results will help you decide how hot, cold, wet, or windy it might be!

Date:

Astronomy

Dec. 08, 2012 Rise Set
Actual Time 8:37 AM CET 4:31 PM CET
Civil Twilight 7:56 AM CET 5:11 PM CET
Nautical Twilight 7:13 AM CET 5:54 PM CET
Astronomical Twilight 6:32 AM CET 6:35 PM CET
Moon 2:09 AM CET (12/8) 1:23 PM CET (12/8)
Length of Visible Light 9h 14m
Length of Day
7h 54m
Waning Crescent, 31% of the Moon is Illuminated
Dec 8
Waning Crescent
Dec 13
New
Dec 20
First Quarter
Dec 28
Full
Jan 5
Last Quarter

Hourly Weather History & Observations

Time (CET) Temp. Windchill Dew Point Humidity Pressure Visibility Wind Dir Wind Speed Gust Speed Precip Events Conditions
12:25 AM 33.8 °F 26.4 °F 28.4 °F 81% 29.89 in 6.2 mi ENE 9.2 mph - N/A   Overcast
12:55 AM 33.8 °F 25.8 °F 28.4 °F 81% 29.89 in 6.2 mi ENE 10.4 mph - N/A   Overcast
1:00 AM 33 °F - 29 °F 78% 29.92 in 11 mi ENE 11.2 mph - -   Partly Cloudy
1:25 AM 33.8 °F 26.4 °F 28.4 °F 81% 29.92 in 6.2 mi ENE 9.2 mph - N/A   Overcast
1:55 AM 32.0 °F 23.0 °F 28.4 °F 87% 29.95 in 6.2 mi ENE 11.5 mph - N/A   Overcast
2:25 AM 32.0 °F 27.5 °F 28.4 °F 87% 29.95 in 6.2 mi NE 4.6 mph - N/A   Unknown
2:55 AM 30.2 °F 25.4 °F 26.6 °F 86% 29.98 in 6.2 mi North 4.6 mph - N/A   Unknown
3:25 AM 30.2 °F 24.3 °F 26.6 °F 86% 29.98 in 6.2 mi NE 5.8 mph - N/A   Unknown
3:55 AM 28.4 °F 24.6 °F 26.6 °F 93% 30.01 in 6.2 mi North 3.5 mph - N/A   Unknown
4:00 AM 29 °F - 26 °F 84% 30.03 in 6 mi North 4.5 mph - -   Mist
4:25 AM 28.4 °F 23.3 °F 26.6 °F 93% 30.01 in 6.2 mi NNE 4.6 mph - N/A   Unknown
4:55 AM 28.4 °F 22.2 °F 26.6 °F 93% 30.04 in 6.2 mi North 5.8 mph - N/A   Unknown
5:25 AM 28.4 °F 22.2 °F 24.8 °F 86% 30.04 in 6.2 mi NE 5.8 mph - N/A   Unknown
5:55 AM 26.6 °F 21.2 °F 24.8 °F 93% 30.06 in 6.2 mi NE 4.6 mph - N/A   Unknown
6:25 AM 28.4 °F 24.6 °F 24.8 °F 86% 30.06 in 6.2 mi NE 3.5 mph - N/A   Unknown
6:55 AM 26.6 °F - 24.8 °F 93% 30.09 in 5.6 mi North 2.3 mph - N/A   Unknown
7:00 AM 25 °F - 24 °F 92% 30.10 in 5 mi NNW 2.2 mph - -   Mist
7:25 AM 24.8 °F 20.5 °F 23.0 °F 93% 30.09 in 3.7 mi NNW 3.5 mph - N/A   Unknown
7:55 AM 24.8 °F - 23.0 °F 93% 30.12 in - Variable 1.2 mph - N/A   Mist
8:25 AM 24.8 °F - 23.0 °F 93% 30.12 in 1.2 mi East 1.2 mph - N/A   Mist
8:55 AM 24.8 °F - 23.0 °F 93% 30.15 in - NW 2.3 mph - N/A   Mist
9:25 AM 23.0 °F - 23.0 °F 100% 30.15 in 1.8 mi SSW 1.2 mph - N/A   Mist
9:55 AM 24.8 °F - 24.8 °F 100% 30.18 in - Variable 1.2 mph - N/A   Mist
10:00 AM 26 °F - 26 °F 97% 30.19 in 3 mi Calm Calm - -   Mist
10:25 AM 28.4 °F - 26.6 °F 93% 30.18 in - NNW 1.2 mph - N/A   Mist
10:55 AM 30.2 °F - 28.4 °F 93% 30.18 in 3.7 mi Variable 1.2 mph - N/A   Unknown
11:25 AM 32.0 °F - 28.4 °F 87% 30.21 in 4.3 mi Variable 1.2 mph - N/A   Unknown
11:55 AM 33.8 °F - 28.4 °F 81% 30.21 in 5.0 mi Variable 1.2 mph - N/A   Unknown
12:25 PM 33.8 °F - 28.4 °F 81% 30.21 in 6.2 mi South 1.2 mph - N/A   Unknown
12:55 PM 37.4 °F - 26.6 °F 65% 30.21 in 6.2 mi Variable 1.2 mph - N/A   Unknown
1:00 PM 37 °F - 28 °F 59% 30.22 in 9 mi South 2.2 mph - -   Partly Cloudy
1:25 PM 37.4 °F 34.9 °F 26.6 °F 65% 30.21 in 6.2 mi SSW 3.5 mph - N/A   Unknown
1:55 PM 37.4 °F 33.8 °F 28.4 °F 70% 30.21 in 6.2 mi SSW 4.6 mph - N/A   Unknown
2:25 PM 37.4 °F 33.8 °F 28.4 °F 70% 30.21 in 6.2 mi SSW 4.6 mph - N/A   Unknown
2:55 PM 35.6 °F 29.9 °F 30.2 °F 81% 30.21 in 6.2 mi SSW 6.9 mph - N/A   Unknown
3:25 PM 35.6 °F 29.2 °F 28.4 °F 75% 30.21 in 6.2 mi SW 8.1 mph - N/A   Unknown
3:55 PM 33.8 °F 28.6 °F 30.2 °F 87% 30.21 in 6.2 mi SW 5.8 mph - N/A   Unknown
4:00 PM 34 °F - 29 °F 76% 30.23 in 6 mi SW 6.7 mph - -   Partly Cloudy
4:25 PM 33.8 °F 29.6 °F 28.4 °F 81% 30.21 in 6.2 mi SSW 4.6 mph - N/A   Partly Cloudy
4:55 PM 33.8 °F 28.6 °F 30.2 °F 87% 30.21 in 6.2 mi SSW 5.8 mph - N/A   Scattered Clouds
5:25 PM 33.8 °F 29.6 °F 30.2 °F 87% 30.24 in 6.2 mi SSW 4.6 mph - N/A   Overcast
5:55 PM 33.8 °F 28.6 °F 30.2 °F 87% 30.24 in 6.2 mi SSW 5.8 mph - N/A   Overcast
6:25 PM 35.6 °F 29.9 °F 32.0 °F 87% 30.24 in 6.2 mi SSW 6.9 mph - N/A   Overcast
6:55 PM 35.6 °F 28.6 °F 32.0 °F 87% 30.24 in 6.2 mi SSW 9.2 mph - N/A   Overcast
7:00 PM 36 °F - 32 °F 78% 30.25 in 7 mi SSW 11.2 mph - -   Partly Cloudy
7:25 PM 35.6 °F 28.0 °F 32.0 °F 87% 30.24 in 6.2 mi SSW 10.4 mph - N/A   Overcast
7:55 PM 37.4 °F 30.3 °F 32.0 °F 81% 30.21 in 6.2 mi SSW 10.4 mph - N/A   Overcast
8:25 PM 37.4 °F 30.3 °F 33.8 °F 87% 30.21 in 6.2 mi SSW 10.4 mph - N/A   Overcast
8:55 PM 37.4 °F 29.8 °F 33.8 °F 87% 30.21 in 5.6 mi SSW 11.5 mph - N/A   Overcast
9:25 PM 37.4 °F 29.8 °F 33.8 °F 87% 30.21 in 6.2 mi SSW 11.5 mph - N/A   Mostly Cloudy
9:55 PM 37.4 °F 30.3 °F 33.8 °F 87% 30.21 in 6.2 mi SSW 10.4 mph - N/A   Overcast
10:00 PM 37 °F - 34 °F 84% 30.21 in 6 mi SSW 11.2 mph - -   Overcast
10:25 PM 37.4 °F 29.8 °F 33.8 °F 87% 30.21 in 6.2 mi SSW 11.5 mph - N/A   Mostly Cloudy
10:55 PM 37.4 °F 29.3 °F 33.8 °F 87% 30.18 in 5.6 mi SSW 12.7 mph - N/A   Partly Cloudy
11:25 PM 37.4 °F 29.8 °F 33.8 °F 87% 30.18 in 5.6 mi SSW 11.5 mph - N/A   Mostly Cloudy
11:55 PM 37.4 °F 29.3 °F 35.6 °F 93% 30.18 in 4.3 mi SSW 12.7 mph - N/A Rain Light Rain